Regional Weather Roundup
Issued by NWS

Home | Current Version | Previous Version | Graphics & Text | Print | Product List | Glossary On
Versions: 1 2 3 4 5 6 7 8 9 10 11 12 13 14 15 16 17 18 19 20 21 22 23 24 25 26 27 28 29 30 31 32 33 34 35 36 37 38 39 40
000
ASUS45 KSLC 221610
RWRUT

UTAH REGIONAL WEATHER ROUNDUP
NATIONAL WEATHER SERVICE SALT LAKE CITY UT
1000 AM MDT WED OCT 22 2014

UTZ001>011-023>025-221700-

NORTHERN UTAH

CITY           SKY/WX    TMP DP  RH WIND       PRES   REMARKS
BRIGHAM CITY   SUNNY     40  32  72 CALM      30.22S
DUGWAY         MOSUNNY   34  27  75 SE2       30.19
HILL AFB       SUNNY     44  28  53 E14       30.21R
LOGAN          SUNNY     38  32  79 N3        30.23R
OGDEN          SUNNY     45  30  55 S3        30.20R
PROVO AIRPORT  MOSUNNY   43  32  65 SE5       30.22R
SALT LAKE CITY MOSUNNY   48  34  57 SE5       30.20R
VERNAL         PTSUNNY   50  38  63 CALM      30.19R
WENDOVER       PTSUNNY   46  30  53 W3        30.22R
HEBER CITY     SUNNY     37  30  75 CALM      30.23S
WEST JORDAN    SUNNY     48  36  61 CALM      30.21R

$$

UTZ012>022-026-027-221700-

SOUTHERN/CENTRAL UTAH

CITY           SKY/WX    TMP DP  RH WIND       PRES   REMARKS
BLANDING       PTSUNNY   55  43  64 S5        30.27R
BRYCE CANYON   CLOUDY    44  34  67 CALM      30.27R
CEDAR CITY     PTSUNNY   48  30  49 CALM      30.20R
DELTA          PTSUNNY   46  32  58 CALM      30.21R
HANKSVILLE       N/A     52  36  54 CALM      30.16S
MILFORD        PTSUNNY   49  28  44 CALM      30.19S
MOAB/CYNLANDS  MOSUNNY   59  44  57 CALM      30.13R
PRICE          SUNNY     52  30  43 CALM      30.18R
ST GEORGE      SUNNY     63  37  39 SE3       30.11R

$$

REGIONAL REPORTS     COLORADO/ARIZONA

CITY           SKY/WX    TMP DP  RH WIND       PRES   REMARKS
CRAIG, CO      CLOUDY    45  40  82 NW3       30.21S
GRAND JUNCTION SUNNY     54  47  77 S3        30.15R
RIFLE          MOSUNNY   49  45  86 CALM      30.20R
MONTROSE       MOSUNNY   50  41  71 CALM      30.20S
CORTEZ         SUNNY     54  42  64 CALM      30.21R
PAGE, AZ       PTSUNNY   64  39  39 CALM      30.12R
GRAND CANYON   MOSUNNY   57  41  55 SW9       30.25R
KINGMAN        SUNNY     71  45  39 SE6       30.09R
FLAGSTAFF      SUNNY     55  41  59 NE3       30.27R

$$

REGIONAL REPORTS    NEVADA/IDAHO/WYOMING

CITY           SKY/WX    TMP DP  RH WIND       PRES   REMARKS
LAS VEGAS, NV  MOSUNNY   69  27  20 S7        30.01R
ELY            MOSUNNY   41  16  36 S6        30.23R
ELKO           CLOUDY    36  20  52 E5        30.21S WCI  32
POCATELLO, ID  SUNNY     43  34  70 NW5       30.21R
BURLEY         MOSUNNY   41  32  70 CALM      30.18R
EVANSTON, WY   SUNNY     38  28  67 CALM      30.24R
ROCK SPRINGS   SUNNY     35  28  75 W5        30.23R WCI  31

$$



USA.gov is the U.S. government's official web portal to all federal, state and local government web resources and services.